FW0880 Weather Reports


time (UTC)temp
C
wind
direction
speed
KPH
gust
KPH
rain 1hr
cm
rain 24hr
cm
rain mn
cm
humidity
%
barometer
mb
20260904220026 33 205 9.7 16.1 0.00 0.00 0.00 63 1006.0
20260904215517 34 213 9.7 19.3 0.00 0.00 0.00 62 1006.1
20260904215023 34 264 8.0 19.3 0.00 0.00 0.00 62 1006.2
20260904214523 34 208 4.8 20.9 0.00 0.00 0.00 63 1006.2
20260904214007 34 226 11.3 20.9 0.00 0.00 0.00 64 1006.3
20260904213511 34 185 11.3 22.5 0.00 0.00 0.00 61 1006.3
20260904213014 34 200 12.9 22.5 0.00 0.00 0.00 60 1006.3
20260904212515 33 169 11.3 25.7 0.00 0.00 0.00 59 1006.3
20260904212019 33 249 8.0 14.5 0.00 0.00 0.00 63 1006.4
20260904211519 34 240 8.0 16.1 0.00 0.00 0.00 65 1006.4
20260904211006 34 223 8.0 16.1 0.00 0.00 0.00 65 1006.5
20260904210509 34 200 8.0 14.5 0.00 0.00 0.00 65 1006.4
20260904210015 33 360 4.8 14.5 0.00 0.00 0.00 66 1006.4
20260904205511 33 170 4.8 14.5 0.00 0.00 0.00 66 1006.4
20260904205015 33 294 6.4 14.5 0.00 0.00 0.00 65 1006.6
20260904204514 33 199 6.4 14.5 0.00 0.00 0.00 64 1006.7
20260904204022 34 174 8.0 14.5 0.00 0.00 0.00 65 1006.8
20260904203526 33 216 4.8 16.1 0.00 0.00 0.00 66 1006.9
20260904203007 33 248 6.4 16.1 0.00 0.00 0.00 65 1007.1
20260904202504 33 171 8.0 14.5 0.00 0.00 0.00 66 1007.1
20260904202009 33 360 8.0 16.1 0.00 0.00 0.00 66 1007.1
20260904201509 34 207 9.7 16.1 0.00 0.00 0.00 66 1007.0
20260904201021 33 186 8.0 14.5 0.00 0.00 0.00 66 1007.0
20260904200516 33 242 8.0 12.9 0.00 0.00 0.00 66 1007.2
20260904200020 33 165 6.4 14.5 0.00 0.00 0.00 68 1007.3
20260904195520 33 192 8.0 14.5 0.00 0.00 0.00 68 1007.4
20260904195020 33 279 3.2 14.5 0.00 0.00 0.00 68 1007.5
20260904194542 33 194 6.4 14.5 0.00 0.00 0.00 66 1007.6
20260904194032 33 244 4.8 11.3 0.00 0.00 0.00 68 1007.5
20260904193531 33 238 4.8 14.5 0.00 0.00 0.00 68 1007.4
20260904193006 33 250 4.8 14.5 0.00 0.00 0.00 68 1007.5
20260904192506 33 205 3.2 16.1 0.00 0.00 0.00 70 1007.5
20260904192009 33 200 8.0 17.7 0.00 0.00 0.00 70 1007.6
20260904191514 33 236 9.7 17.7 0.00 0.00 0.00 69 1007.7
20260904191019 33 246 6.4 14.5 0.00 0.00 0.00 68 1007.7
20260904190517 33 192 8.0 14.5 0.00 0.00 0.00 70 1007.8
20260904190019 33 220 8.0 17.7 0.00 0.00 0.00 70 1007.7
20260904185520 32 248 11.3 19.3 0.00 0.00 0.00 71 1007.8
20260904185020 32 192 9.7 19.3 0.00 0.00 0.00 71 1007.8
20260904184519 32 213 8.0 17.7 0.00 0.00 0.00 70 1007.8
20260904184008 32 200 8.0 16.1 0.00 0.00 0.00 70 1007.9
20260904183508 32 163 8.0 16.1 0.00 0.00 0.00 71 1007.9
20260904183013 32 229 8.0 16.1 0.00 0.00 0.00 70 1008.0
20260904182515 32 235 6.4 14.5 0.00 0.00 0.00 72 1008.1
20260904182017 32 238 4.8 14.5 0.00 0.00 0.00 71 1008.1
20260904181516 32 239 8.0 16.1 0.00 0.00 0.00 71 1008.2
20260904181020 32 265 8.0 16.1 0.00 0.00 0.00 70 1008.3
20260904180516 32 220 6.4 14.5 0.00 0.00 0.00 70 1008.3
20260904180024 32 205 8.0 14.5 0.00 0.00 0.00 70 1008.2
20260904175523 32 221 8.0 14.5 0.00 0.00 0.00 69 1008.3
20260904175008 32 188 6.4 14.5 0.00 0.00 0.00 70 1008.3
20260904174507 32 183 4.8 12.9 0.00 0.00 0.00 71 1008.4
20260904174011 32 263 6.4 12.9 0.00 0.00 0.00 72 1008.4
20260904173510 32 174 6.4 12.9 0.00 0.00 0.00 71 1008.4
20260904173020 32 231 6.4 11.3 0.00 0.00 0.00 71 1008.4
20260904172523 32 182 6.4 12.9 0.00 0.00 0.00 71 1008.4
20260904172021 32 192 6.4 12.9 0.00 0.00 0.00 72 1008.3
20260904171522 32 171 6.4 12.9 0.00 0.00 0.00 72 1008.5
20260904171026 31 196 4.8 14.5 0.00 0.00 0.00 73 1008.5
20260904170524 31 188 6.4 14.5 0.00 0.00 0.00 73 1008.5
20260904170012 31 183 4.8 11.3 0.00 0.00 0.00 73 1008.5
20260904165510 31 226 4.8 12.9 0.00 0.00 0.00 73 1008.5
20260904165016 31 240 8.0 12.9 0.00 0.00 0.00 73 1008.6
20260904164514 31 221 3.2 12.9 0.00 0.00 0.00 74 1008.5
20260904164018 31 284 4.8 12.9 0.00 0.00 0.00 75 1008.6
20260904163517 31 257 4.8 9.7 0.00 0.00 0.00 74 1008.6
20260904163024 31 215 4.8 11.3 0.00 0.00 0.00 74 1008.5
20260904162523 31 270 3.2 11.3 0.00 0.00 0.00 74 1008.4
20260904162008 31 254 1.6 8.0 0.00 0.00 0.00 74 1008.5
20260904161505 31 176 3.2 11.3 0.00 0.00 0.00 75 1008.6
20260904161012 31 258 4.8 11.3 0.00 0.00 0.00 74 1008.5
20260904160510 31 272 3.2 9.7 0.00 0.00 0.00 74 1008.5
20260904160021 30 234 4.8 9.7 0.00 0.00 0.00 74 1008.5
20260904155515 30 235 4.8 9.7 0.00 0.00 0.00 74 1008.5
20260904155026 30 194 3.2 11.3 0.00 0.00 0.00 75 1008.5
20260904154522 30 169 3.2 11.3 0.00 0.00 0.00 75 1008.4
20260904154007 30 198 4.8 11.3 0.00 0.00 0.00 75 1008.3
20260904153506 30 244 3.2 12.9 0.00 0.00 0.00 76 1008.3
20260904153012 30 218 6.4 12.9 0.00 0.00 0.00 74 1008.4
20260904152511 30 263 4.8 6.4 0.00 0.00 0.00 73 1008.3
20260904152020 30 246 1.6 6.4 0.00 0.00 0.00 73 1008.2
20260904151520 30 279 1.6 4.8 0.00 0.00 0.00 73 1008.2
20260904151027 30 281 0.0 6.4 0.00 0.00 0.00 74 1008.1
20260904150521 30 273 3.2 6.4 0.00 0.00 0.00 75 1008.2
20260904150011 29 268 1.6 6.4 0.00 0.00 0.00 75 1008.2
20260904145507 29 276 3.2 6.4 0.00 0.00 0.00 77 1008.2
20260904145017 29 267 1.6 9.7 0.00 0.00 0.00 78 1008.2
20260904144515 28 311 3.2 9.7 0.00 0.00 0.00 78 1008.2
20260904144018 28 296 1.6 6.4 0.00 0.00 0.00 78 1008.2
20260904143516 28 319 3.2 6.4 0.00 0.00 0.00 80 1008.0
20260904143021 28 320 1.6 6.4 0.00 0.00 0.00 82 1008.1
20260904142518 28 5 0.0 4.8 0.00 0.00 0.00 82 1008.0
20260904142006 27 9 1.6 4.8 0.00 0.00 0.00 83 1008.0
20260904141505 27 53 1.6 3.2 0.00 0.00 0.00 83 1008.1
20260904141010 27 55 0.0 1.6 0.00 0.00 0.00 83 1008.2
20260904140509 27 55 0.0 3.2 0.00 0.00 0.00 83 1008.2
20260904140018 27 55 0.0 3.2 0.00 0.00 0.00 84 1008.3
20260904135517 27 55 1.6 3.2 0.00 0.00 0.00 84 1008.2
20260904135024 27 55 0.0 1.6 0.00 0.00 0.00 85 1008.2
20260904134521 27 55 0.0 1.6 0.00 0.00 0.00 85 1008.2
20260904134009 27 55 0.0 3.2 0.00 0.00 0.00 85 1008.3
20260904133505 27 55 1.6 3.2 0.00 0.00 0.00 85 1008.4
20260904133010 26 53 1.6 3.2 0.00 0.00 0.00 85 1008.4
20260904132510 26 344 0.0 0.0 0.00 0.00 0.00 85 1008.4
20260904132020 26 345 0.0 0.0 0.00 0.00 0.00 84 1008.4
20260904131517 26 345 0.0 0.0 0.00 0.00 0.00 84 1008.4
20260904131019 26 345 0.0 0.0 0.00 0.00 0.00 84 1008.4
20260904130523 26 345 0.0 0.0 0.00 0.00 0.00 84 1008.3
20260904130024 26 345 0.0 1.6 0.00 0.00 0.00 84 1008.3
20260904125524 26 345 0.0 1.6 0.00 0.00 0.00 84 1008.2
20260904125009 26 345 0.0 1.6 0.00 0.00 0.00 84 1008.2
20260904124508 26 345 0.0 1.6 0.00 0.00 0.00 84 1008.2
20260904124016 26 345 0.0 3.2 0.00 0.00 0.00 84 1008.2
20260904123519 26 345 0.0 3.2 0.00 0.00 0.00 84 1008.3
20260904123019 26 345 0.0 3.2 0.00 0.00 0.00 84 1008.3
20260904122518 26 345 0.0 6.4 0.00 0.00 0.00 84 1008.3
20260904122021 26 340 1.6 8.0 0.00 0.00 0.00 84 1008.2
20260904121521 26 331 3.2 8.0 0.00 0.00 0.00 83 1008.2
20260904121009 26 318 3.2 4.8 0.00 0.00 0.00 83 1008.1
20260904120509 26 317 0.0 4.8 0.00 0.00 0.00 83 1008.1
20260904120017 26 317 0.0 6.4 0.00 0.00 0.00 83 1008.0
20260904115514 27 317 3.2 6.4 0.00 0.00 0.00 83 1008.0
20260904115022 27 308 1.6 6.4 0.00 0.00 0.00 83 1008.0
20260904114519 27 334 3.2 6.4 0.00 0.00 0.00 83 1008.0
20260904114022 27 355 1.6 4.8 0.00 0.00 0.00 83 1008.0
20260904113522 27 355 0.0 1.6 0.00 0.00 0.00 83 1008.0
20260904113014 27 355 0.0 0.0 0.00 0.00 0.00 83 1007.9
20260904112505 27 355 0.0 0.0 0.00 0.00 0.00 83 1007.9
20260904112009 27 355 0.0 0.0 0.00 0.00 0.00 83 1007.9
20260904111509 27 355 0.0 1.6 0.00 0.00 0.00 83 1008.0
20260904111018 27 355 0.0 3.2 0.00 0.00 0.00 83 1007.9
20260904110520 27 355 0.0 4.8 0.00 0.00 0.00 83 1007.9
20260904110035 27 338 1.6 4.8 0.00 0.00 0.00 83 1008.0
20260904105521 27 333 1.6 4.8 0.00 0.00 0.00 83 1008.0
20260904105012 27 335 0.0 1.6 0.00 0.00 0.00 83 1007.9
20260904104506 27 335 0.0 3.2 0.00 0.00 0.00 83 1008.0
20260904104015 27 335 0.0 3.2 0.00 0.00 0.00 83 1008.1
20260904103516 27 335 0.0 4.8 0.00 0.00 0.00 83 1008.1
20260904103018 27 335 1.6 4.8 0.00 0.00 0.00 83 1008.1
20260904102521 27 331 1.6 4.8 0.00 0.00 0.00 83 1008.1
20260904102020 27 329 1.6 3.2 0.00 0.00 0.00 83 1008.1
20260904101523 27 355 0.0 6.4 0.00 0.00 0.00 83 1008.2
20260904101020 27 344 3.2 9.7 0.00 0.00 0.00 84 1008.3
20260904100517 27 5 3.2 9.7 0.00 0.00 0.00 84 1008.3
20260904100023 27 10 3.2 8.0 0.00 0.00 0.00 84 1008.4
20260904095622 27 355 3.2 6.4 0.00 0.00 0.00 84 1008.4
20260904095007 27 59 1.6 4.8 0.00 0.00 0.00 84 1008.3
20260904094507 27 112 0.0 1.6 0.00 0.00 0.00 84 1008.2
20260904094012 27 112 0.0 1.6 0.00 0.00 0.00 84 1008.3
20260904093511 27 112 0.0 3.2 0.00 0.00 0.00 84 1008.4
20260904093020 27 112 0.0 3.2 0.00 0.00 0.00 84 1008.4
20260904092519 27 112 1.6 3.2 0.00 0.00 0.00 84 1008.5
20260904092024 27 112 0.0 1.6 0.00 0.00 0.00 84 1008.6
20260904091523 27 112 0.0 3.2 0.00 0.00 0.00 84 1008.7
20260904091007 27 112 0.0 3.2 0.00 0.00 0.00 84 1008.8
20260904090507 27 112 0.0 3.2 0.00 0.00 0.00 84 1008.8
20260904090016 27 112 1.6 3.2 0.00 0.00 0.00 84 1008.9
20260904085517 27 112 0.0 1.6 0.00 0.00 0.00 84 1008.9
20260904085019 27 112 0.0 1.6 0.00 0.00 0.00 84 1008.9
20260904084520 27 112 0.0 1.6 0.00 0.00 0.00 84 1008.9
20260904084018 27 112 0.0 1.6 0.00 0.00 0.00 84 1009.0
20260904083521 27 112 0.0 1.6 0.00 0.00 0.00 84 1008.9
20260904083006 27 112 0.0 4.8 0.00 0.00 0.00 84 1008.9
20260904082507 27 112 0.0 4.8 0.00 0.00 0.00 84 1008.9
20260904082111 27 112 1.6 3.2 0.00 0.00 0.00 84 1008.9
20260904081511 27 112 0.0 0.0 0.00 0.00 0.00 84 1008.8
20260904081016 27 112 0.0 1.6 0.00 0.00 0.00 84 1008.9
20260904080517 27 112 0.0 1.6 0.00 0.00 0.00 84 1008.9
20260904080018 27 112 0.0 4.8 0.00 0.00 0.00 84 1008.9
20260904075518 27 112 0.0 4.8 0.00 0.00 0.00 84 1008.9
20260904075024 27 103 0.0 4.8 0.00 0.00 0.00 84 1009.0
20260904074522 27 103 1.6 4.8 0.00 0.00 0.00 84 1009.0
20260904074007 27 84 0.0 0.0 0.00 0.00 0.00 84 1009.0
20260904073508 27 84 0.0 1.6 0.00 0.00 0.00 84 1009.0
20260904073013 27 84 0.0 1.6 0.00 0.00 0.00 84 1009.0
20260904072512 27 84 0.0 1.6 0.00 0.00 0.00 84 1009.1
20260904072019 27 84 0.0 3.2 0.00 0.00 0.00 84 1009.1
20260904071519 27 84 0.0 3.2 0.00 0.00 0.00 84 1009.2
20260904071025 27 84 0.0 3.2 0.00 0.00 0.00 84 1009.2
20260904070524 27 84 0.0 3.2 0.00 0.00 0.00 84 1009.2
20260904070027 27 84 0.0 3.2 0.00 0.00 0.00 84 1009.4
20260904065508 27 84 0.0 3.2 0.00 0.00 0.00 84 1009.4
20260904065018 27 84 0.0 1.6 0.00 0.00 0.00 84 1009.3
20260904064517 27 84 0.0 1.6 0.00 0.00 0.00 84 1009.3
20260904064017 27 84 0.0 3.2 0.00 0.00 0.00 85 1009.4
20260904063516 27 84 0.0 3.2 0.00 0.00 0.00 85 1009.4
20260904063021 27 84 0.0 1.6 0.00 0.00 0.00 85 1009.4
20260904062519 27 84 0.0 1.6 0.00 0.00 0.00 85 1009.5
20260904062008 27 84 0.0 3.2 0.00 0.00 0.00 85 1009.7
20260904061508 27 84 0.0 3.2 0.00 0.00 0.00 85 1009.7
20260904061015 27 81 0.0 1.6 0.00 0.00 0.00 85 1009.7
20260904060512 27 81 0.0 3.2 0.00 0.00 0.00 85 1009.7
20260904060021 27 81 1.6 3.2 0.00 0.00 0.00 85 1009.7
20260904055519 27 81 0.0 3.2 0.00 0.00 0.00 85 1009.8
20260904055024 27 81 0.0 3.2 0.00 0.00 0.00 85 1009.8
20260904054531 27 81 1.6 4.8 0.00 0.00 0.00 85 1009.9
20260904054009 27 82 0.0 3.2 0.00 0.00 0.00 85 1009.9
20260904053508 27 82 0.0 3.2 0.00 0.00 0.00 85 1009.9
20260904053011 27 84 0.0 1.6 0.00 0.00 0.00 85 1010.0
20260904052511 27 84 0.0 0.0 0.00 0.00 0.00 85 1010.1
20260904052019 27 84 0.0 1.6 0.00 0.00 0.00 85 1010.1
20260904051518 27 84 0.0 1.6 0.00 0.00 0.00 85 1010.2
20260904051020 27 84 0.0 3.2 0.00 0.00 0.00 85 1010.2
20260904050520 27 84 1.6 3.2 0.00 0.00 0.00 85 1010.2
20260904050014 27 79 0.0 3.2 0.00 0.00 0.00 85 1010.2
20260904045506 27 79 0.0 1.6 0.00 0.00 0.00 85 1010.3
20260904045111 27 79 0.0 1.6 0.00 0.00 0.00 85 1010.3
20260904044521 27 79 0.0 3.2 0.00 0.00 0.00 85 1010.5
20260904044019 27 79 0.0 3.2 0.00 0.00 0.00 85 1010.6
20260904043518 27 79 0.0 4.8 0.00 0.00 0.00 85 1010.6
20260904043018 27 61 1.6 6.4 0.00 0.00 0.00 85 1010.5
20260904042517 27 72 1.6 6.4 0.00 0.00 0.00 85 1010.6
20260904042017 27 74 0.0 6.4 0.00 0.00 0.00 84 1010.5
20260904041517 27 95 1.6 4.8 0.00 0.00 0.00 84 1010.6
20260904041023 27 146 0.0 3.2 0.00 0.00 0.00 84 1010.7
20260904040526 27 147 0.0 1.6 0.00 0.00 0.00 83 1010.6
20260904040009 27 147 0.0 3.2 0.00 0.00 0.00 83 1010.7
20260904035512 27 147 0.0 3.2 0.00 0.00 0.00 83 1010.6
20260904035014 27 147 1.6 3.2 0.00 0.00 0.00 82 1010.6
20260904034524 27 157 0.0 3.2 0.00 0.00 0.00 82 1010.6
20260904034019 27 157 0.0 3.2 0.00 0.00 0.00 81 1010.5
20260904033519 27 157 0.0 3.2 0.00 0.00 0.00 81 1010.5
20260904033023 27 157 0.0 8.0 0.00 0.00 0.00 80 1010.5
20260904032522 27 158 1.6 9.7 0.00 0.00 0.00 79 1010.4
20260904032005 27 134 0.0 14.5 0.00 0.00 0.00 79 1010.4
20260904031511 27 165 9.7 14.5 0.00 0.00 0.00 78 1010.5
20260904031014 27 168 4.8 12.9 0.00 0.00 0.00 79 1010.4
20260904030514 28 157 6.4 12.9 0.00 0.00 0.00 80 1010.4
20260904030017 28 143 6.4 12.9 0.00 0.00 0.00 81 1010.4
20260904025517 28 147 1.6 8.0 0.00 0.00 0.00 82 1010.5
20260904025020 28 163 4.8 8.0 0.00 0.00 0.00 83 1010.5
20260904024517 28 143 0.0 6.4 0.00 0.00 0.00 83 1010.3
20260904024018 28 96 0.0 3.2 0.00 0.00 0.00 82 1010.3
20260904023518 28 84 0.0 4.8 0.00 0.00 0.00 82 1010.2
20260904023004 28 40 1.6 9.7 0.00 0.00 0.00 82 1010.0
20260904022504 28 360 1.6 9.7 0.00 0.00 0.00 81 1010.0
20260904022012 28 19 0.0 17.7 0.00 0.00 0.00 81 1009.9
20260904021508 29 327 4.8 17.7 0.00 0.00 0.00 80 1009.8
20260904021011 29 355 3.2 8.0 0.00 0.00 0.00 79 1009.8
20260904020511 29 40 0.0 4.8 0.00 0.00 0.00 79 1009.7
20260904020020 29 40 0.0 4.8 0.00 0.00 0.00 79 1009.4
20260904015522 29 40 1.6 6.4 0.00 0.00 0.00 79 1009.6
20260904015022 29 49 1.6 6.4 0.00 0.00 0.00 80 1009.7
20260904014522 29 80 0.0 4.8 0.00 0.00 0.00 81 1009.4
20260904014026 29 81 0.0 4.8 0.00 0.00 0.00 82 1009.2
20260904013525 29 94 0.0 6.4 0.00 0.00 0.00 82 1009.1
20260904013011 29 94 0.0 6.4 0.00 0.00 0.00 82 1008.9
20260904012511 29 126 0.0 6.4 0.00 0.00 0.00 82 1008.8
20260904012015 29 103 1.6 6.4 0.00 0.00 0.00 83 1008.7
20260904011546 30 76 1.6 6.4 0.00 0.00 0.00 83 1008.8
20260904011016 30 115 0.0 6.4 0.00 0.00 0.00 83 1008.8
20260904010516 30 102 3.2 6.4 0.00 0.00 0.00 82 1008.7
20260904010026 30 115 0.0 3.2 0.00 0.00 0.00 82 1008.6
20260904005525 30 115 0.0 6.4 0.00 0.00 0.00 81 1008.6
20260904005006 30 103 1.6 6.4 0.00 0.00 0.00 80 1008.7
20260904004506 30 144 0.0 8.0 0.00 0.00 0.00 80 1008.7
20260904004009 30 146 1.6 8.0 0.00 0.00 0.00 80 1008.6
20260904003516 29 203 1.6 8.0 0.00 0.00 0.00 80 1008.5
20260904003018 28 207 3.2 8.0 0.00 0.00 0.00 80 1008.4
20260904002519 28 238 1.6 8.0 0.00 0.00 0.00 82 1008.5
20260904002023 28 239 3.2 14.5 0.00 0.00 0.00 82 1008.5
20260904001522 29 264 6.4 17.7 0.00 0.00 0.00 82 1008.6
20260904001006 29 261 6.4 19.3 0.00 0.00 0.00 79 1008.5
20260904000506 30 338 6.4 19.3 0.00 0.00 0.00 76 1008.5
20260904000139 30 323 8.0 25.7 0.00 0.00 0.00 77 1008.4
20260903235514 31 329 11.3 25.7 0.00 0.00 0.00 77 1008.3
20260903235019 31 255 1.6 8.0 0.00 0.00 0.00 76 1008.3
20260903234535 31 96 3.2 6.4 0.00 0.00 0.00 76 1008.2
20260903234023 31 132 1.6 4.8 0.00 0.00 0.00 76 1007.9
20260903233524 31 138 0.0 6.4 0.00 0.00 0.00 76 1007.9
20260903233017 31 126 1.6 9.7 0.00 0.00 0.00 75 1007.9
20260903232507 31 128 1.6 9.7 0.00 0.00 0.00 75 1007.9
20260903232016 31 103 1.6 9.7 0.00 0.00 0.00 75 1007.9
20260903231515 31 154 1.6 9.7 0.00 0.00 0.00 76 1007.9
20260903231116 31 160 3.2 9.7 0.00 0.00 0.00 76 1007.9
20260903230516 32 173 3.2 8.0 0.00 0.00 0.00 76 1007.9
20260903230024 31 223 1.6 8.0 0.00 0.00 0.00 76 1007.9
20260903225519 31 152 4.8 11.3 0.00 0.00 0.00 76 1008.0
20260903225007 32 202 6.4 12.9 0.00 0.00 0.00 75 1007.9
20260903224506 32 175 4.8 12.9 0.00 0.00 0.00 75 1007.9
20260903224011 32 203 3.2 14.5 0.00 0.00 0.00 74 1007.9
20260903223510 32 221 4.8 17.7 0.00 0.00 0.00 74 1007.7
20260903223017 32 178 9.7 17.7 0.00 0.00 0.00 73 1007.7
20260903222514 32 181 4.8 16.1 0.00 0.00 0.00 73 1007.5
20260903222022 32 222 6.4 16.1 0.00 0.00 0.00 72 1007.5
20260903221620 33 243 8.0 16.1 0.00 0.00 0.00 71 1007.6
20260903221005 33 242 4.8 14.5 0.00 0.00 0.00 70 1007.6
20260903220505 32 171 6.4 14.5 0.00 0.00 0.00 70 1007.6